| time (UTC) | temp F | wind direction | speed MPH | gust MPH | rain 1hr in | rain 24hr in | rain mn in | humidity % | barometer mb |
| 20260505003042 | 73 | 312 | 0.0 | 1.0 | 0.00 | 0.00 | 0.00 | 63 | 1003.0 |
| 20260505001514 | 74 | 312 | 1.0 | 3.0 | 0.00 | 0.00 | 0.00 | 61 | 1003.2 |
| 20260505000043 | 75 | 313 | 0.0 | 2.0 | 0.00 | 0.00 | 0.00 | 61 | 1003.1 |
| 20260504234511 | 76 | 313 | 0.0 | 1.0 | 0.00 | 0.00 | 0.00 | 58 | 1003.3 |
| 20260504233043 | 76 | 303 | 1.0 | 3.0 | 0.00 | 0.00 | 0.00 | 56 | 1003.4 |
| 20260504231505 | 77 | 300 | 0.0 | 3.0 | 0.00 | 0.00 | 0.00 | 55 | 1003.6 |
| 20260504230051 | 77 | 300 | 2.0 | 8.0 | 0.00 | 0.00 | 0.00 | 53 | 1003.8 |
| 20260504224552 | 78 | 292 | 1.0 | 4.0 | 0.00 | 0.00 | 0.00 | 52 | 1003.9 |
| 20260504223024 | 78 | 200 | 1.0 | 5.0 | 0.00 | 0.00 | 0.00 | 51 | 1003.9 |
| 20260504221551 | 78 | 331 | 2.0 | 6.0 | 0.00 | 0.00 | 0.00 | 51 | 1003.8 |
| 20260504220010 | 78 | 279 | 3.0 | 6.0 | 0.00 | 0.00 | 0.00 | 54 | 1004.0 |
| 20260504214542 | 78 | 246 | 2.0 | 8.0 | 0.00 | 0.00 | 0.00 | 50 | 1004.1 |
| 20260504213019 | 78 | 312 | 4.0 | 11.0 | 0.00 | 0.00 | 0.00 | 51 | 1004.2 |
| 20260504211541 | 78 | 64 | 2.0 | 9.0 | 0.00 | 0.00 | 0.00 | 49 | 1004.4 |
| 20260504210107 | 77 | 342 | 1.0 | 12.0 | 0.00 | 0.00 | 0.00 | 51 | 1004.6 |
| 20260504204523 | 78 | 271 | 2.0 | 9.0 | 0.00 | 0.00 | 0.00 | 50 | 1004.7 |
| 20260504203106 | 78 | 336 | 2.0 | 11.0 | 0.00 | 0.00 | 0.00 | 50 | 1004.9 |
| 20260504201528 | 78 | 347 | 3.0 | 9.0 | 0.00 | 0.00 | 0.00 | 51 | 1005.1 |
| 20260504200048 | 78 | 342 | 2.0 | 11.0 | 0.00 | 0.00 | 0.00 | 52 | 1005.5 |
| 20260504194513 | 78 | 297 | 3.0 | 12.0 | 0.00 | 0.00 | 0.00 | 50 | 1005.6 |
| 20260504193057 | 78 | 20 | 3.0 | 13.0 | 0.00 | 0.00 | 0.00 | 50 | 1005.9 |
| 20260504191523 | 79 | 311 | 3.0 | 8.0 | 0.00 | 0.00 | 0.00 | 49 | 1006.2 |
| 20260504190107 | 80 | 310 | 3.0 | 8.0 | 0.00 | 0.00 | 0.00 | 49 | 1006.2 |
| 20260504184509 | 81 | 52 | 3.0 | 12.0 | 0.00 | 0.00 | 0.00 | 49 | 1006.4 |
| 20260504183035 | 82 | 313 | 3.0 | 10.0 | 0.00 | 0.00 | 0.00 | 49 | 1006.5 |
| 20260504181558 | 82 | 334 | 3.0 | 8.0 | 0.00 | 0.00 | 0.00 | 49 | 1006.5 |
| 20260504180036 | 81 | 288 | 3.0 | 12.0 | 0.00 | 0.00 | 0.00 | 47 | 1006.7 |
| 20260504174601 | 80 | 204 | 2.0 | 10.0 | 0.00 | 0.00 | 0.00 | 45 | 1007.0 |
| 20260504174501 | 80 | 360 | 3.0 | 10.0 | 0.00 | 0.00 | 0.00 | 48 | 1006.9 |
| 20260504173027 | 81 | 302 | 4.0 | 10.0 | 0.00 | 0.00 | 0.00 | 47 | 1007.1 |
| 20260504171508 | 81 | 252 | 3.0 | 10.0 | 0.00 | 0.00 | 0.00 | 44 | 1007.3 |
| 20260504081607 | 60 | 234 | 0.0 | 3.0 | 0.00 | 0.00 | 0.00 | 74 | 1008.6 |
| 20260504081503 | 60 | 234 | 0.0 | 3.0 | 0.00 | 0.00 | 0.00 | 75 | 1008.6 |
| 20260504060113 | 61 | 221 | 0.0 | 0.0 | 0.00 | 0.00 | 0.00 | 75 | 1009.6 |
| 20260504044516 | 62 | 221 | 0.0 | 0.0 | 0.00 | 0.00 | 0.00 | 73 | 1009.6 |
| 20260504043056 | 62 | 221 | 0.0 | 0.0 | 0.00 | 0.00 | 0.00 | 72 | 1009.7 |
| 20260504041514 | 63 | 221 | 0.0 | 0.0 | 0.00 | 0.00 | 0.00 | 72 | 1009.7 |
| 20260504040040 | 63 | 221 | 0.0 | 0.0 | 0.00 | 0.00 | 0.00 | 72 | 1009.9 |
| 20260504034510 | 63 | 221 | 0.0 | 0.0 | 0.00 | 0.00 | 0.00 | 71 | 1009.9 |
| 20260504033035 | 63 | 221 | 0.0 | 0.0 | 0.00 | 0.00 | 0.00 | 71 | 1009.9 |
| 20260504031559 | 63 | 221 | 0.0 | 0.0 | 0.00 | 0.00 | 0.00 | 70 | 1009.9 |
| 20260504030026 | 64 | 221 | 0.0 | 0.0 | 0.00 | 0.00 | 0.00 | 69 | 1009.8 |
| 20260504024557 | 64 | 221 | 0.0 | 0.0 | 0.00 | 0.00 | 0.00 | 68 | 1009.8 |
| 20260504023034 | 65 | 221 | 0.0 | 0.0 | 0.00 | 0.00 | 0.00 | 67 | 1009.8 |
| 20260504021504 | 65 | 221 | 0.0 | 0.0 | 0.00 | 0.00 | 0.00 | 67 | 1009.7 |
| 20260504020031 | 66 | 221 | 0.0 | 0.0 | 0.00 | 0.00 | 0.00 | 65 | 1009.6 |
| 20260504014557 | 66 | 221 | 0.0 | 0.0 | 0.00 | 0.00 | 0.00 | 64 | 1009.6 |
| 20260504013016 | 67 | 221 | 0.0 | 0.0 | 0.00 | 0.00 | 0.00 | 62 | 1009.4 |
| 20260504011540 | 68 | 221 | 0.0 | 1.0 | 0.00 | 0.00 | 0.00 | 61 | 1009.5 |
| 20260504010012 | 70 | 221 | 0.0 | 0.0 | 0.00 | 0.00 | 0.00 | 60 | 1009.4 |
| 20260504004532 | 71 | 221 | 0.0 | 2.0 | 0.00 | 0.00 | 0.00 | 59 | 1009.5 |